Fayetteville, NC

1:44 PM EDT on May 28, 2017 (GMT -0400)
Fayetteville Regional-Grannis

Weather History for KFAY - April, 2014

Change the Weather History Date:

Wednesday, April 23, 2014

  Actual Average Record
Temperature  
Mean Temperature 65 °F 65 °F  
Max Temperature 78 °F 77 °F 93 °F (1957)
Min Temperature 51 °F 52 °F 35 °F (1927)
Degree Days  
Heating Degree Days 0 3  
Month to date heating degree days 101 119  
Since 1 July heating degree days 2923 2688  
Cooling Degree Days 0 3  
Month to date cooling degree days 36 44  
Year to date cooling degree days 40 60  
Growing Degree Days 17 (Base 50)    
Moisture  
Dew Point 39 °F    
Average Humidity 54    
Maximum Humidity 93    
Minimum Humidity 14    
Precipitation  
Precipitation 0.00 in 0.09 in 1.01 in (1997)
Month to date precipitation 2.58 2.34  
Year to date precipitation 12.94 11.95  
Sea Level Pressure  
Sea Level Pressure 29.80 in    
Wind  
Wind Speed 10 mph (NW)    
Max Wind Speed 22 mph    
Max Gust Speed 33 mph    
Visibility 9 miles    
Events      
T = Trace of Precipitation, MM = Missing Value Source: NWS Daily Summary

Daily Weather History Graph

Daily Weather History Graph

Search for Another Location

Airport or City:

Trip Planner

Search our weather history database for the weather conditions in past years. The results will help you decide how hot, cold, wet, or windy it might be!

Date:

Astronomy

Apr. 23, 2014 Rise Set
Actual Time 6:33 AM EDT 7:54 PM EDT
Civil Twilight 6:07 AM EDT 8:21 PM EDT
Nautical Twilight 5:35 AM EDT 8:52 PM EDT
Astronomical Twilight 5:02 AM EDT 9:26 PM EDT
Moon 2:49 AM EDT (4/23) 2:14 PM EDT (4/23)
Length of Visible Light 14h 13m
Length of Day
13h 20m
Waning Crescent, 35% of the Moon is Illuminated
Apr 23
Waning Crescent
Apr 29
New
May 6
First Quarter
May 14
Full
May 21
Last Quarter

Hourly Weather History & Observations

Time (EDT) Temp. Dew Point Humidity Pressure Visibility Wind Dir Wind Speed Gust Speed Precip Events Conditions
12:53 AM 62.1 °F 57.0 °F 84% 29.70 in 10.0 mi WSW 8.1 mph - N/A   Clear
1:53 AM 61.0 °F 57.0 °F 87% 29.70 in 9.0 mi West 6.9 mph - N/A   Clear
2:53 AM 60.1 °F 57.0 °F 90% 29.68 in 7.0 mi WSW 8.1 mph - N/A   Clear
3:53 AM 60.1 °F 57.0 °F 90% 29.68 in 6.0 mi West 8.1 mph - N/A   Clear
4:53 AM 57.9 °F 55.9 °F 93% 29.70 in 5.0 mi West 5.8 mph - N/A   Clear
5:53 AM 57.9 °F 54.0 °F 87% 29.71 in 9.0 mi West 5.8 mph - N/A   Clear
6:53 AM 59.0 °F 52.0 °F 78% 29.74 in 10.0 mi WNW 6.9 mph - N/A   Clear
7:53 AM 63.0 °F 51.1 °F 65% 29.77 in 10.0 mi NW 6.9 mph - N/A   Clear
8:53 AM 66.0 °F 44.1 °F 45% 29.80 in 10.0 mi NNW 16.1 mph - N/A   Clear
9:53 AM 70.0 °F 36.0 °F 29% 29.81 in 10.0 mi NNW 17.3 mph - N/A   Clear
10:53 AM 72.0 °F 30.9 °F 22% 29.82 in 10.0 mi NW 16.1 mph 23.0 mph N/A   Clear
11:53 AM 73.0 °F 30.0 °F 20% 29.83 in 10.0 mi West 15.0 mph 21.9 mph N/A   Clear
1:53 PM 77.0 °F 28.9 °F 17% 29.81 in 10.0 mi NNW 13.8 mph 21.9 mph N/A   Clear
2:53 PM 77.0 °F 26.1 °F 15% 29.81 in 10.0 mi NW 16.1 mph 25.3 mph N/A   Clear
3:53 PM 77.0 °F 26.1 °F 15% 29.80 in 10.0 mi WNW 15.0 mph 21.9 mph N/A   Clear
4:53 PM 77.0 °F 25.0 °F 15% 29.80 in 10.0 mi WNW 17.3 mph 24.2 mph N/A   Clear
5:53 PM 75.9 °F 25.0 °F 15% 29.81 in 10.0 mi NNW 13.8 mph - N/A   Clear
6:53 PM 73.9 °F 26.1 °F 17% 29.83 in 10.0 mi NNW 11.5 mph - N/A   Clear
7:53 PM 66.0 °F 30.0 °F 26% 29.84 in 10.0 mi North 4.6 mph - N/A   Clear
8:53 PM 64.0 °F 30.9 °F 29% 29.88 in 10.0 mi North 3.5 mph - N/A   Clear
9:53 PM 59.0 °F 36.0 °F 42% 29.90 in 10.0 mi Calm Calm - N/A   Clear
10:53 PM 59.0 °F 33.1 °F 38% 29.93 in 10.0 mi North 4.6 mph - N/A   Clear
11:53 PM 57.9 °F 33.1 °F 39% 29.95 in 10.0 mi North 5.8 mph - N/A   Clear